WZZ2210 LKPR-EPKK

Flight info

Callsign WZZ2210
Flight time N/A
Altitude 30000
Route VOZ4B/30 VOZ DCT LIKSA DCT UPLAV DCT NETIR NETIR4G
Aircraft A20N/H-SADE2E3FGHIJ3J4J5M1RWXYZ/LB1D1

Departure

Time 2026-04-30 18:16
Airport Václav Havel Airport Prague (LKPR)

Arrival

Time N/A
Airport Kraków John Paul II International Airport (EPKK)
Time Latitude Longitude Altitude Speed Heading
2026-04-30 17:39 50.10628 14.26162 1182 ft 0 kts 59°
2026-04-30 18:02 50.10624 14.26152 1182 ft 1 kts 59°
2026-04-30 18:02 50.10616 14.26132 1182 ft 1 kts 60°
2026-04-30 18:03 50.10608 14.26110 1183 ft 1 kts 53°
2026-04-30 18:04 50.10586 14.26091 1184 ft 1 kts 343°
2026-04-30 18:05 50.10581 14.26093 1185 ft 0 kts 318°
2026-04-30 18:09 50.10583 14.26073 1184 ft 4 kts 279°
2026-04-30 18:10 50.10501 14.25983 1186 ft 3 kts 154°
2026-04-30 18:11 50.10321 14.26349 1193 ft 24 kts 127°
2026-04-30 18:11 50.10070 14.26868 1207 ft 18 kts 127°
2026-04-30 18:12 50.09899 14.27223 1211 ft 15 kts 127°
2026-04-30 18:13 50.09735 14.27496 1213 ft 19 kts 135°
2026-04-30 18:13 50.09461 14.27916 1232 ft 16 kts 135°
2026-04-30 18:14 50.09288 14.28182 1242 ft 14 kts 135°
2026-04-30 18:15 50.09118 14.28221 1241 ft 7 kts 228°
2026-04-30 18:15 50.09194 14.27856 1242 ft 51 kts 307°
2026-04-30 18:16 50.10171 14.25838 1275 ft 161 kts 306°
2026-04-30 18:16 50.11464 14.23157 2589 ft 161 kts 306°
2026-04-30 18:17 50.12159 14.21700 3037 ft 176 kts 306°
2026-04-30 18:17 50.12943 14.20075 3454 ft 197 kts 306°
2026-04-30 18:17 50.14780 14.16278 4412 ft 248 kts 306°
2026-04-30 18:18 50.15869 14.14021 5108 ft 268 kts 306°
2026-04-30 18:18 50.17010 14.11652 6243 ft 272 kts 306°
2026-04-30 18:18 50.17888 14.09082 7308 ft 275 kts 284°
2026-04-30 18:18 50.17980 14.06102 8365 ft 279 kts 258°
2026-04-30 18:19 50.17207 14.03328 9397 ft 283 kts 232°
2026-04-30 18:19 50.15736 14.01214 10260 ft 296 kts 217°
2026-04-30 18:19 50.13917 13.99471 10728 ft 320 kts 201°
2026-04-30 18:19 50.11669 13.98774 11251 ft 339 kts 179°
2026-04-30 18:20 50.09341 13.99451 12147 ft 345 kts 159°
2026-04-30 18:20 50.07179 14.01103 13052 ft 350 kts 146°
2026-04-30 18:20 50.05342 14.03642 13933 ft 356 kts 134°
2026-04-30 18:20 50.03672 14.06519 14791 ft 361 kts 131°
2026-04-30 18:21 50.02005 14.09474 15332 ft 364 kts 131°
2026-04-30 18:21 50.00351 14.12326 15527 ft 356 kts 133°
2026-04-30 18:21 49.98632 14.15195 15594 ft 368 kts 133°
2026-04-30 18:21 49.96875 14.18063 15596 ft 366 kts 134°
2026-04-30 18:22 49.95102 14.20926 15596 ft 366 kts 134°
2026-04-30 18:22 49.93671 14.23655 15526 ft 0 kts 79°
2026-04-30 18:22 50.10628 14.26162 1182 ft 0 kts 59°